Flag for Turkey Weather past 2 weeks in Bodrum, Turkey

Now
59 °F

Partly sunny.


Feels Like: 57 °F
Forecast: 59 / 65 °F
Wind: 10 mph from Southeast

Location: Bodrum

Current Time: Jan 30, 2015 at 4:46:46 PM

Latest Report: Jan 30, 2015 at 4:00 PM


Visibility: 13 mi

Pressure: 29.79 "Hg

Humidity: 69%

Dew point: 48 °F

Location of BodrumLocation

Historic Weather in Bodrum — Graph

°F

Bodrum temperature yesterday

Maximum temperature yesterday: 62 °F (at 1:00 PM)
Minimum temperature yesterday: 47 °F (at 8:00 AM)
Average temperature yesterday: 55 °F

Past Weeks' High & Low Weather Summary

 TemperatureHumidityPressure
High67 °F (Jan 22, 3:00 PM)95% (Jan 26, 2:00 AM)30.37 "Hg (Jan 26, 2:00 AM)
Low47 °F (Jan 17, 8:00 AM)45% (Jan 17, 11:00 AM)29.73 "Hg (Jan 29, 5:00 PM)
Average58 °F69%30.02 "Hg
* Reported Jan 15 3:00 PM — Jan 30 3:00 PM, Bodrum, Weather by CustomWeather, © 2014

Note: Actual official high and low records may vary slightly from our data, if they occured in-between our weather recording intervals... More about our weather records

Advertising

Bodrum weather history for previous 24 hours

 ConditionsComfort  
Time TempWeatherWind HumidityBarometerVisibility
3:00 PM
Jan 30
60 °FPartly sunny.10 mph65%29.80 "Hg12 mi
2:00 PM59 °FPartly sunny.14 mph67%29.80 "Hg12 mi
1:00 PM58 °FOvercast.10 mph69%29.81 "Hg12 mi
12:00 PM58 °FPartly sunny.8 mph74%29.82 "Hg12 mi
11:00 AM56 °FPartly sunny.8 mph75%29.83 "Hg12 mi
10:00 AM55 °FPartly sunny.7 mph75%29.83 "Hg12 mi
9:00 AM54 °FPartly sunny.7 mph78%29.81 "Hg12 mi
8:00 AM52 °FPartly sunny.7 mph81%29.80 "Hg12 mi
5:00 AM52 °FPassing clouds.5 mph80%29.75 "Hg12 mi
2:00 AM53 °FPassing clouds.8 mph77%29.75 "Hg12 mi
11:00 PM
Jan 29
56 °FPassing clouds.7 mph67%29.75 "Hg12 mi
8:00 PM54 °FOvercast.5 mph73%29.76 "Hg12 mi
7:00 PM53 °FThunderstorms. Overcast.3 mph75%29.77 "Hg9 mi
6:00 PM53 °FThundershowers. Overcast.5 mph80%29.76 "Hg6 mi
5:00 PM56 °FThunderstorms. Overcast.10 mph70%29.73 "Hg9 mi
4:00 PM59 °FThunderstorms. Overcast.14 mph61%29.73 "Hg9 mi
Weather by CustomWeather, © 2014

See weather overviewHow to use our weather pages